SHT2J EGLL-EGCC

Flight info

Callsign SHT2J
Flight time 0h 27m
Altitude 18000
Route ULTIB1J ULTIB T420 ELVOS ELVOS1M
Aircraft A320/M-SDE3FGHIJ1RWXY/S

Departure

Time 2026-05-08 00:05
Airport London Heathrow Airport (EGLL)

Arrival

Time 2026-05-08 00:33
Airport Manchester Airport (EGCC)
Time Latitude Longitude Altitude Speed Heading
2026-05-07 23:19 51.46913 -0.48038 86 ft 0 kts 269°
2026-05-07 23:57 51.46913 -0.48037 89 ft 1 kts 269°
2026-05-07 23:57 51.46914 -0.48005 86 ft 3 kts 269°
2026-05-07 23:57 51.46914 -0.47973 86 ft 3 kts 269°
2026-05-07 23:57 51.46914 -0.47940 88 ft 3 kts 269°
2026-05-07 23:58 51.46914 -0.47912 88 ft 3 kts 262°
2026-05-07 23:58 51.46919 -0.47883 90 ft 3 kts 225°
2026-05-07 23:58 51.46934 -0.47869 90 ft 3 kts 183°
2026-05-07 23:58 51.46954 -0.47868 86 ft 3 kts 180°
2026-05-07 23:59 51.46957 -0.47869 86 ft 0 kts 180°
2026-05-08 00:00 51.46942 -0.47868 89 ft 5 kts 180°
2026-05-08 00:00 51.46876 -0.47869 90 ft 12 kts 179°
2026-05-08 00:00 51.46784 -0.47879 86 ft 15 kts 204°
2026-05-08 00:00 51.46744 -0.48027 89 ft 6 kts 266°
2026-05-08 00:01 51.46744 -0.48037 86 ft 0 kts 267°
2026-05-08 00:02 51.46744 -0.48043 86 ft 3 kts 267°
2026-05-08 00:02 51.46743 -0.48112 88 ft 10 kts 269°
2026-05-08 00:03 51.46698 -0.48211 90 ft 15 kts 200°
2026-05-08 00:03 51.46653 -0.48358 89 ft 17 kts 266°
2026-05-08 00:03 51.46651 -0.48564 86 ft 20 kts 271°
2026-05-08 00:03 51.46647 -0.48711 86 ft 11 kts 252°
2026-05-08 00:04 51.46603 -0.48765 87 ft 0 kts 200°
2026-05-08 00:04 51.46602 -0.48765 89 ft 2 kts 199°
2026-05-08 00:04 51.46506 -0.48768 86 ft 21 kts 145°
2026-05-08 00:04 51.46476 -0.48446 87 ft 56 kts 92°
2026-05-08 00:05 51.46482 -0.47454 88 ft 117 kts 89°
2026-05-08 00:05 51.46491 -0.45903 117 ft 158 kts 88°
2026-05-08 00:05 51.46693 -0.44241 699 ft 154 kts 62°
2026-05-08 00:05 51.47247 -0.42772 1286 ft 155 kts 54°
2026-05-08 00:06 51.47993 -0.41415 1611 ft 173 kts 43°
2026-05-08 00:06 51.49119 -0.40463 1836 ft 199 kts 17°
2026-05-08 00:06 51.50487 -0.39690 2250 ft 215 kts 25°
2026-05-08 00:06 51.51860 -0.38653 2934 ft 221 kts 27°
2026-05-08 00:07 51.53206 -0.37583 3884 ft 210 kts 28°
2026-05-08 00:07 51.54496 -0.36559 4720 ft 204 kts 27°
2026-05-08 00:07 51.55790 -0.35547 5376 ft 206 kts 27°
2026-05-08 00:07 51.57111 -0.34624 6001 ft 208 kts 12°
2026-05-08 00:08 51.58554 -0.34707 6530 ft 214 kts 339°
2026-05-08 00:08 51.59996 -0.35517 7021 ft 225 kts 340°
2026-05-08 00:08 51.61478 -0.36367 7682 ft 228 kts 340°
2026-05-08 00:08 51.63018 -0.37257 8122 ft 246 kts 340°
2026-05-08 00:09 51.64700 -0.38230 8440 ft 269 kts 340°
2026-05-08 00:09 51.66523 -0.39282 8928 ft 284 kts 340°
2026-05-08 00:09 51.68397 -0.40361 9661 ft 288 kts 340°
2026-05-08 00:09 51.70307 -0.41458 10303 ft 298 kts 339°
2026-05-08 00:10 51.72336 -0.42623 10535 ft 321 kts 339°
2026-05-08 00:10 51.74543 -0.43887 10720 ft 343 kts 339°
2026-05-08 00:10 51.76826 -0.45193 11193 ft 353 kts 339°
2026-05-08 00:10 51.79098 -0.46494 11811 ft 357 kts 339°
2026-05-08 00:11 51.81453 -0.47846 12439 ft 361 kts 339°
2026-05-08 00:11 51.83835 -0.49216 13069 ft 365 kts 339°
2026-05-08 00:11 51.86239 -0.50600 13707 ft 368 kts 338°
2026-05-08 00:11 51.88656 -0.51997 14382 ft 370 kts 338°
2026-05-08 00:12 51.91090 -0.53404 14987 ft 373 kts 339°
2026-05-08 00:12 51.93538 -0.54851 15548 ft 376 kts 335°
2026-05-08 00:12 51.95879 -0.56794 15970 ft 383 kts 327°
2026-05-08 00:12 51.98213 -0.59057 16099 ft 399 kts 327°
2026-05-08 00:13 52.00637 -0.61435 16220 ft 415 kts 327°
2026-05-08 00:13 52.03135 -0.63909 16391 ft 427 kts 327°
2026-05-08 00:13 52.05725 -0.66472 16772 ft 432 kts 327°
2026-05-08 00:13 52.07434 -0.68159 17061 ft 434 kts 327°
2026-05-08 00:14 52.10027 -0.70712 17491 ft 437 kts 327°
2026-05-08 00:14 52.12644 -0.73281 17908 ft 440 kts 327°
2026-05-08 00:14 52.15270 -0.75865 18055 ft 441 kts 327°
2026-05-08 00:14 52.17892 -0.78454 18082 ft 441 kts 327°
2026-05-08 00:15 52.20517 -0.81050 18082 ft 441 kts 327°
2026-05-08 00:15 52.23133 -0.83643 18082 ft 441 kts 327°
2026-05-08 00:15 52.25750 -0.86239 18085 ft 441 kts 327°
2026-05-08 00:15 52.28372 -0.88838 18082 ft 441 kts 327°
2026-05-08 00:16 52.30995 -0.91439 18083 ft 441 kts 327°
2026-05-08 00:16 52.33610 -0.94040 18084 ft 440 kts 327°
2026-05-08 00:16 52.36230 -0.96648 18081 ft 440 kts 327°
2026-05-08 00:16 52.38843 -0.99253 18082 ft 440 kts 327°
2026-05-08 00:17 52.41463 -1.01868 18082 ft 440 kts 327°
2026-05-08 00:17 52.44109 -1.04516 18083 ft 440 kts 326°
2026-05-08 00:17 52.46722 -1.07142 18082 ft 440 kts 326°
2026-05-08 00:17 52.49337 -1.09773 18081 ft 440 kts 326°
2026-05-08 00:18 52.51840 -1.12628 18081 ft 438 kts 316°
2026-05-08 00:18 52.53930 -1.16235 18083 ft 436 kts 309°
2026-05-08 00:18 52.55949 -1.19956 18082 ft 436 kts 309°
2026-05-08 00:18 52.57959 -1.23682 18082 ft 436 kts 309°
2026-05-08 00:19 52.59959 -1.27404 17567 ft 429 kts 309°
2026-05-08 00:19 52.61914 -1.31054 16742 ft 425 kts 309°
2026-05-08 00:19 52.63879 -1.34738 15953 ft 421 kts 309°
2026-05-08 00:19 52.65797 -1.38339 15216 ft 416 kts 309°
2026-05-08 00:20 52.67696 -1.41906 14499 ft 412 kts 309°
2026-05-08 00:20 52.69584 -1.45445 13837 ft 409 kts 309°
2026-05-08 00:20 52.71451 -1.48946 13188 ft 405 kts 309°
2026-05-08 00:20 52.73297 -1.52415 12525 ft 401 kts 309°
2026-05-08 00:21 52.75128 -1.55864 11849 ft 397 kts 309°
2026-05-08 00:21 52.76938 -1.59278 11156 ft 394 kts 309°
2026-05-08 00:21 52.78737 -1.62673 10327 ft 393 kts 310°
2026-05-08 00:21 52.80530 -1.66066 10022 ft 392 kts 310°
2026-05-08 00:22 52.82340 -1.69503 10075 ft 399 kts 310°
2026-05-08 00:22 52.84163 -1.72971 10079 ft 400 kts 310°
2026-05-08 00:22 52.85988 -1.76444 10027 ft 397 kts 310°
2026-05-08 00:22 52.87785 -1.79867 9318 ft 392 kts 310°
2026-05-08 00:23 52.89569 -1.83262 8508 ft 389 kts 310°
2026-05-08 00:23 52.91336 -1.86628 7724 ft 386 kts 310°
2026-05-08 00:23 52.93088 -1.89975 6992 ft 381 kts 309°
2026-05-08 00:23 52.94781 -1.93211 6849 ft 361 kts 309°
2026-05-08 00:24 52.96404 -1.96318 6717 ft 343 kts 309°
2026-05-08 00:24 52.97920 -1.99213 6597 ft 330 kts 309°
2026-05-08 00:24 52.99387 -2.02022 6451 ft 317 kts 309°
2026-05-08 00:24 53.00822 -2.04779 6335 ft 305 kts 308°
2026-05-08 00:25 53.02181 -2.07389 6208 ft 294 kts 309°
2026-05-08 00:25 53.03490 -2.09909 6081 ft 284 kts 308°
2026-05-08 00:25 53.04762 -2.12361 5896 ft 277 kts 308°
2026-05-08 00:25 53.06007 -2.14774 5607 ft 274 kts 308°
2026-05-08 00:26 53.07265 -2.17220 5279 ft 274 kts 308°
2026-05-08 00:26 53.08500 -2.19617 4954 ft 273 kts 308°
2026-05-08 00:26 53.09761 -2.21960 4718 ft 269 kts 312°
2026-05-08 00:26 53.11111 -2.24167 4586 ft 261 kts 314°
2026-05-08 00:27 53.12402 -2.26216 4299 ft 259 kts 314°
2026-05-08 00:27 53.13715 -2.28276 3975 ft 259 kts 314°
2026-05-08 00:27 53.15041 -2.30351 3677 ft 258 kts 314°
2026-05-08 00:27 53.16344 -2.32395 3361 ft 257 kts 314°
2026-05-08 00:28 53.17641 -2.34445 3066 ft 255 kts 314°
2026-05-08 00:28 53.18876 -2.36397 2998 ft 234 kts 313°
2026-05-08 00:28 53.20008 -2.38184 3000 ft 217 kts 313°
2026-05-08 00:28 53.21045 -2.39821 3034 ft 195 kts 313°
2026-05-08 00:29 53.22004 -2.41343 3003 ft 191 kts 313°
2026-05-08 00:29 53.23047 -2.42731 2848 ft 194 kts 330°
2026-05-08 00:29 53.24331 -2.43380 2678 ft 193 kts 356°
2026-05-08 00:29 53.25678 -2.43276 2525 ft 191 kts
2026-05-08 00:30 53.26964 -2.42842 2405 ft 186 kts 20°
2026-05-08 00:30 53.28145 -2.41889 2276 ft 183 kts 36°
2026-05-08 00:30 53.29100 -2.40592 2112 ft 172 kts 49°
2026-05-08 00:30 53.29863 -2.39039 1827 ft 173 kts 53°
2026-05-08 00:31 53.30569 -2.37467 1508 ft 165 kts 54°
2026-05-08 00:31 53.31260 -2.35945 1255 ft 163 kts 50°
2026-05-08 00:31 53.31978 -2.34527 1117 ft 153 kts 49°
2026-05-08 00:31 53.32645 -2.33181 916 ft 149 kts 52°
2026-05-08 00:32 53.33270 -2.31834 702 ft 145 kts 51°
2026-05-08 00:32 53.33889 -2.30544 554 ft 140 kts 51°
2026-05-08 00:32 53.34519 -2.29248 330 ft 138 kts 50°
2026-05-08 00:32 53.34928 -2.28423 237 ft 130 kts 52°
2026-05-08 00:33 53.35418 -2.27410 244 ft 79 kts 51°
2026-05-08 00:33 53.35574 -2.27086 255 ft 16 kts 39°
2026-05-08 00:33 53.35655 -2.27128 257 ft 11 kts 319°
2026-05-08 00:33 53.35728 -2.27226 255 ft 15 kts 322°
2026-05-08 00:34 53.35756 -2.27384 255 ft 17 kts 240°
2026-05-08 00:34 53.35680 -2.27568 248 ft 21 kts 260°
2026-05-08 00:34 53.35736 -2.27665 248 ft 6 kts 16°
2026-05-08 00:34 53.35787 -2.27694 251 ft 11 kts 324°
2026-05-08 00:35 53.35842 -2.27789 253 ft 12 kts 312°
2026-05-08 00:35 53.35915 -2.27847 255 ft 12 kts 349°
2026-05-08 00:35 53.36000 -2.27908 255 ft 15 kts 321°
2026-05-08 00:35 53.36084 -2.28036 255 ft 18 kts 317°
2026-05-08 00:36 53.36179 -2.28190 255 ft 20 kts 314°
2026-05-08 00:36 53.36284 -2.28369 255 ft 23 kts 314°
2026-05-08 00:36 53.36423 -2.28504 255 ft 24 kts 327°
2026-05-08 00:36 53.36544 -2.28697 255 ft 25 kts 311°
2026-05-08 00:37 53.36627 -2.28873 255 ft 15 kts 326°
2026-05-08 00:37 53.36700 -2.28962 255 ft 9 kts 315°
2026-05-08 00:37 53.36741 -2.29026 255 ft 7 kts 324°
2026-05-08 00:38 53.36841 -2.28982 255 ft 9 kts 45°
2026-05-08 00:38 53.36887 -2.28904 255 ft 10 kts 44°
2026-05-08 00:38 53.36905 -2.28813 255 ft 9 kts 124°
2026-05-08 00:38 53.36891 -2.28788 255 ft 0 kts 134°